EW9372 Weather Reports


Display with metric or nautical units.
time (UTC)temp
F
wind
direction
speed
MPH
gust
MPH
rain 1hr
in
rain 24hr
in
rain mn
in
humidity
%
barometer
mb
20260901174911 69 194 4.0 11.0 0.00 0.00 0.00 58 1014.9
20260901174907 70 210 4.0 11.0 0.00 0.00 0.00 56 1015.0
20260901173901 68 207 3.0 4.0 0.00 0.00 0.00 59 1014.9
20260901172632 68 167 4.0 2.0 0.00 0.00 0.00 59 1014.9
20260901171313 67 213 5.0 11.0 0.00 0.00 0.00 60 1014.8
20260901170811 67 245 4.0 5.0 0.00 0.00 0.00 60 1014.6
20260901170511 68 179 5.0 4.0 0.00 0.00 0.00 59 1014.6
20260901164203 66 225 3.0 7.0 0.00 0.00 0.00 62 1014.6
20260901164158 66 131 4.0 3.0 0.00 0.00 0.00 63 1014.5
20260901162512 65 213 4.0 12.0 0.00 0.00 0.00 65 1014.5
20260901162018 64 205 4.0 4.0 0.00 0.00 0.00 66 1014.3
20260901161621 64 241 4.0 1.0 0.00 0.00 0.00 68 1014.2
20260901160301 62 246 3.0 0.0 0.00 0.00 0.00 72 1014.0
20260901155508 64 242 3.0 10.0 0.00 0.00 0.00 69 1014.1
20260901154244 61 247 3.0 2.0 0.00 0.00 0.00 74 1013.6
20260901152054 60 244 2.0 4.0 0.00 0.00 0.00 75 1013.4
20260901150551 60 233 4.0 2.0 0.00 0.00 0.00 75 1013.4
20260901145101 60 243 3.0 4.0 0.00 0.00 0.00 76 1013.2
20260901143943 59 175 4.0 1.0 0.00 0.00 0.00 76 1013.2
20260901142559 59 168 3.0 3.0 0.00 0.00 0.00 76 1012.8
20260901141513 59 180 3.0 10.0 0.00 0.00 0.00 77 1012.5
20260901141009 59 194 3.0 2.0 0.00 0.00 0.00 77 1012.5
20260901135441 59 173 2.0 9.0 0.00 0.00 0.00 78 1012.0
20260901134944 59 173 2.0 3.0 0.00 0.00 0.00 79 1012.2
20260901134939 59 161 2.0 9.0 0.00 0.00 0.00 79 1012.1
20260901133922 59 190 3.0 1.0 0.00 0.00 0.00 79 1012.1
20260901133020 58 219 3.0 3.0 0.00 0.00 0.00 80 1011.9
20260901131018 58 225 2.0 5.0 0.00 0.00 0.00 80 1011.6
20260901131013 58 159 2.0 6.0 0.00 0.00 0.00 80 1011.6
20260901130749 58 178 3.0 2.0 0.00 0.00 0.00 80 1011.6
20260901124554 58 202 2.0 6.0 0.00 0.00 0.00 80 1011.6
20260901124049 58 146 2.0 1.0 0.00 0.00 0.00 80 1011.5
20260901122700 58 151 2.0 6.0 0.00 0.00 0.00 80 1011.6
20260901122201 58 179 3.0 1.0 0.00 0.00 0.00 80 1011.8
20260901121349 58 167 3.0 1.0 0.00 0.00 0.00 79 1011.6
20260901120842 58 198 2.0 5.0 0.00 0.00 0.00 79 1011.6
20260901115116 58 184 2.0 2.0 0.00 0.00 0.00 79 1011.4
20260901113959 58 171 2.0 2.0 0.00 0.00 0.00 79 1011.4
20260901112727 58 215 2.0 0.0 0.00 0.00 0.00 79 1011.4
20260901111750 58 201 2.0 9.0 0.00 0.00 0.00 79 1011.2
20260901110743 58 179 2.0 1.0 0.00 0.00 0.00 78 1011.3
20260901105227 59 216 3.0 1.0 0.00 0.00 0.00 78 1011.3
20260901103919 59 211 3.0 7.0 0.00 0.00 0.00 78 1011.1
20260901103422 59 219 3.0 2.0 0.00 0.00 0.00 79 1011.1
20260901102320 58 187 3.0 8.0 0.00 0.00 0.00 79 1011.1
20260901101821 58 198 3.0 8.0 0.00 0.00 0.00 79 1010.9
20260901101317 58 205 2.0 1.0 0.00 0.00 0.00 79 1010.9
20260901100412 59 188 2.0 7.0 0.00 0.00 0.00 79 1010.9
20260901100121 58 205 2.0 6.0 0.00 0.00 0.00 79 1011.0
20260901095646 59 144 2.0 9.0 0.00 0.00 0.00 79 1010.9
20260901094409 59 212 3.0 9.0 0.00 0.00 0.00 79 1011.0
20260901093909 58 219 3.0 9.0 0.00 0.00 0.00 79 1011.2
20260901093409 58 179 2.0 6.0 0.00 0.00 0.00 79 1011.1
20260901092904 58 163 2.0 1.0 0.00 0.00 0.00 79 1011.1
20260901091545 59 135 3.0 0.0 0.00 0.00 0.00 79 1011.0
20260901090208 59 178 2.0 9.0 0.00 0.00 0.00 79 1011.1
20260901085714 59 213 3.0 6.0 0.00 0.00 0.00 79 1011.2
20260901084529 58 185 3.0 10.0 0.00 0.00 0.00 79 1011.2
20260901084034 59 153 3.0 2.0 0.00 0.00 0.00 79 1011.1
20260901082937 59 173 2.0 7.0 0.00 0.00 0.00 79 1011.2
20260901082437 59 163 2.0 1.0 0.00 0.00 0.00 79 1011.2
20260901081031 59 180 2.0 11.0 0.00 0.00 0.00 79 1011.2
20260901080530 59 190 2.0 9.0 0.00 0.00 0.00 79 1011.2
20260901080524 59 183 3.0 11.0 0.00 0.00 0.00 79 1011.1
20260901080231 59 169 3.0 9.0 0.00 0.00 0.00 79 1011.1
20260901075028 59 171 3.0 1.0 0.00 0.00 0.00 79 1011.1
20260901075021 59 204 3.0 11.0 0.00 0.00 0.00 79 1011.1
20260901073321 59 161 3.0 9.0 0.00 0.00 0.00 79 1010.9
20260901072824 59 171 3.0 0.0 0.00 0.00 0.00 79 1010.9
20260901071346 59 171 3.0 2.0 0.00 0.00 0.00 78 1011.0
20260901065954 59 180 3.0 7.0 0.00 0.00 0.00 78 1010.9
20260901065457 59 195 3.0 2.0 0.00 0.00 0.00 78 1010.9
20260901064012 59 202 3.0 2.0 0.00 0.00 0.00 78 1011.0
20260901063203 59 180 3.0 9.0 0.00 0.00 0.00 78 1010.9
20260901062158 59 197 3.0 0.0 0.00 0.00 0.00 78 1010.9
20260901060709 60 172 3.0 7.0 0.00 0.00 0.00 77 1010.8
20260901060208 60 164 3.0 7.0 0.00 0.00 0.00 77 1010.7
20260901055706 60 168 3.0 4.0 0.00 0.00 0.00 77 1010.6
20260901054417 60 190 3.0 7.0 0.00 0.00 0.00 76 1010.7
20260901053918 60 198 3.0 4.0 0.00 0.00 0.00 76 1010.6
20260901053058 61 197 3.0 9.0 0.00 0.00 0.00 75 1010.7
20260901052059 61 213 3.0 7.0 0.00 0.00 0.00 75 1010.7
20260901050652 62 175 3.0 11.0 0.00 0.00 0.00 74 1010.8
20260901050648 61 198 3.0 11.0 0.00 0.00 0.00 74 1010.7
20260901045646 62 184 3.0 10.0 0.00 0.00 0.00 73 1010.7
20260901045146 62 194 3.0 7.0 0.00 0.00 0.00 73 1010.7
20260901044647 62 202 4.0 2.0 0.00 0.00 0.00 73 1010.6
20260901043327 62 183 4.0 2.0 0.00 0.00 0.00 72 1010.5
20260901042236 63 213 5.0 5.0 0.00 0.00 0.00 72 1010.5
20260901041325 64 172 3.0 6.0 0.00 0.00 0.00 70 1010.2
20260901040329 64 227 3.0 4.0 0.00 0.00 0.00 69 1010.2
20260901035142 64 182 3.0 1.0 0.00 0.00 0.00 69 1010.1
20260901033743 66 202 2.0 5.0 0.00 0.00 0.00 66 1009.9
20260901033739 65 201 2.0 6.0 0.00 0.00 0.00 67 1010.0
20260901032741 66 225 3.0 1.0 0.00 0.00 0.00 66 1009.9
20260901031630 67 225 1.0 4.0 0.00 0.00 0.00 64 1009.6
20260901031626 66 234 2.0 11.0 0.00 0.00 0.00 65 1009.6
20260901030622 67 232 2.0 0.0 0.00 0.00 0.00 63 1009.4
20260901025306 67 234 5.0 4.0 0.00 0.00 0.00 62 1009.2
20260901024432 69 252 5.0 4.0 0.00 0.00 0.00 59 1009.2
20260901022834 69 245 5.0 7.0 0.00 0.00 0.00 58 1009.1
20260901022335 70 211 6.0 4.0 0.00 0.00 0.00 58 1009.2
20260901021046 71 233 8.0 13.0 0.00 0.00 0.00 56 1009.1
20260901020547 72 240 7.0 4.0 0.00 0.00 0.00 54 1009.1
20260901015110 73 240 7.0 9.0 0.00 0.00 0.00 52 1008.9
20260901013818 75 250 6.0 8.0 0.00 0.00 0.00 49 1009.0
20260901012534 76 250 5.0 4.0 0.00 0.00 0.00 47 1009.1
20260901011409 77 238 4.0 6.0 0.00 0.00 0.00 47 1009.0
20260901010059 78 225 5.0 5.0 0.00 0.00 0.00 46 1009.1
20260901004838 78 235 6.0 5.0 0.00 0.00 0.00 46 1009.1
20260901003450 80 211 5.0 4.0 0.00 0.00 0.00 45 1009.2
20260901002012 80 225 5.0 4.0 0.00 0.00 0.00 45 1009.2
20260901000647 81 242 5.0 9.0 0.00 0.00 0.00 44 1009.3
20260831235453 82 205 4.0 2.0 0.00 0.00 0.00 43 1009.4
20260831234243 81 238 5.0 10.0 0.00 0.00 0.00 43 1009.6
20260831233747 81 218 6.0 1.0 0.00 0.00 0.00 43 1009.5
20260831232641 82 267 4.0 6.0 0.00 0.00 0.00 42 1009.5
20260831231129 82 221 5.0 4.0 0.00 0.00 0.00 42 1009.7
20260831230017 82 211 2.0 3.0 0.00 0.00 0.00 42 1009.8
20260831225217 82 239 5.0 5.0 0.00 0.00 0.00 41 1010.2
20260831223858 81 238 4.0 4.0 0.00 0.00 0.00 42 1010.0
20260831221827 81 228 4.0 12.0 0.00 0.00 0.00 42 1010.3
20260831221328 82 227 5.0 6.0 0.00 0.00 0.00 42 1010.4
20260831221036 82 184 5.0 1.0 0.00 0.00 0.00 42 1010.5
20260831214623 81 232 4.0 11.0 0.00 0.00 0.00 43 1010.6
20260831214123 81 229 4.0 11.0 0.00 0.00 0.00 43 1010.6
20260831213630 81 200 3.0 4.0 0.00 0.00 0.00 43 1010.5
20260831212532 80 172 3.0 10.0 0.00 0.00 0.00 45 1010.6
20260831212029 80 175 4.0 12.0 0.00 0.00 0.00 43 1010.7
20260831211528 80 247 4.0 12.0 0.00 0.00 0.00 43 1010.8
20260831211030 81 259 4.0 3.0 0.00 0.00 0.00 42 1010.9
20260831205924 80 165 3.0 7.0 0.00 0.00 0.00 43 1010.8
20260831205428 79 210 3.0 1.0 0.00 0.00 0.00 44 1010.8
20260831204301 80 101 3.0 4.0 0.00 0.00 0.00 44 1010.8
20260831203503 79 204 3.0 11.0 0.00 0.00 0.00 46 1010.9
20260831202503 79 186 4.0 0.0 0.00 0.00 0.00 46 1010.9
20260831201433 78 167 4.0 2.0 0.00 0.00 0.00 46 1011.1
20260831195501 77 259 5.0 4.0 0.00 0.00 0.00 47 1011.0
20260831192823 78 223 5.0 13.0 0.00 0.00 0.00 45 1011.4
20260831192326 78 224 5.0 4.0 0.00 0.00 0.00 45 1011.4
20260831192322 77 207 4.0 13.0 0.00 0.00 0.00 46 1011.2
20260831190719 77 224 4.0 10.0 0.00 0.00 0.00 47 1011.2
20260831190225 77 169 5.0 4.0 0.00 0.00 0.00 48 1011.2
20260831184938 77 213 5.0 4.0 0.00 0.00 0.00 48 1011.2
20260831183617 76 240 4.0 10.0 0.00 0.00 0.00 48 1011.1
20260831183116 77 184 4.0 14.0 0.00 0.00 0.00 48 1011.1
20260831182622 76 242 5.0 11.0 0.00 0.00 0.00 49 1011.0
20260831182617 77 187 5.0 14.0 0.00 0.00 0.00 47 1011.1
20260831182325 77 233 4.0 11.0 0.00 0.00 0.00 48 1011.1
20260831181112 75 236 5.0 3.0 0.00 0.00 0.00 49 1011.1